Location: Unspecified
(0.0000°N, 0.0000°E)
Time: 06:36:49
(UTC+00:00)

Courier 1B - Pass Details

Date: 27 November 2019
Orbit: 963 x 1209 km, 28.3° (Epoch: 11 December)

Event Time Altitude Azimuth Distance (km) Brightness Sun altitude
Rises 12:19:54 0° 273° (W) 3,636 10.6 67.4°
Reaches altitude 10° 12:23:03 10° 260° (W) 2,685 10.1 67.2°
Maximum altitude 12:28:10 24° 207° (SSW) 1,859 9.9 66.7°
Drops below altitude 10° 12:33:22 10° 154° (SSE) 2,729 10.2 66.1°
Sets 12:36:36 0° 141° (SE) 3,708 10.7 65.7°
